RH
6 5 5 6 7 7 6 8 10 14 17 23 25 14 17 39 51 41 23 24 38 39 40 48 61 68 59 33 30 36 45 51 75 82 88 89 87 78 76 90 93 90 98 53
6 5 5 8 8 8 8 8 8 13 12 21 28 19 24 47 54 51 54 52 43 41 33 42 50 53 63 69 42 26 42 45 48 37 49 57 73 81 69 75 90 86 88 87
5 5 6 10 12 12 10 10 10 10 13 15 24 20 24 55 57 42 40 47 48 41 32 23 52 52 56 60 62 23 22 36 37 29 37 45 58 78 72 61 65 91 86 86
5 6 10 16 20 18 20 20 16 14 13 15 18 28 40 48 49 45 41 40 31 37 38 28 28 54 45 49 66 52 34 21 33 31 43 50 41 51 52 49 52 80 86 86
10 14 26 29 30 29 28 27 26 22 18 14 15 18 36 46 44 53 45 43 42 26 15 10 16 21 46 45 48 61 69 52 24 37 39 46 45 50 54 48 47 60 81 83
22 29 34 34 35 35 36 44 38 42 39 33 25 20 46 48 56 62 56 46 39 39 27 20 16 18 24 42 49 56 63 65 30 26 39 43 41 36 48 52 49 49 52 74
30 33 36 36 36 42 46 46 44 40 44 40 28 26 49 42 52 55 56 53 48 48 46 33 30 24 14 28 45 65 82 52 28 32 41 44 45 41 38 41 48 49 48 66
28 28 32 31 34 39 42 48 46 31 38 45 32 32 61 55 56 58 60 52 53 51 52 48 37 25 12 13 40 70 69 34 37 39 45 47 45 38 39 41 42 48 56 62
40 39 38 40 44 47 55 53 50 47 43 42 48 36 40 65 60 61 71 58 51 63 52 50 28 19 15 16 55 71 52 57 55 49 45 39 34 32 37 43 51 49 49 46
38 48 61 61 60 57 54 58 57 60 61 53 43 51 48 46 62 73 63 62 54 64 68 60 50 46 18 12 20 81 97 88 64 58 52 44 39 35 36 48 60 56 51 52
23 23 54 67 82 69 66 66 65 67 67 72 67 45 54 59 64 79 78 66 57 53 58 66 64 69 62 49 15 16 38 69 75 72 70 60 43 39 37 40 55 60 55 51
17 17 17 28 55 63 70 64 72 71 68 77 79 54 70 64 52 67 71 72 64 72 73 63 70 82 80 68 33 14 26 42 54 70 73 79 80 60 45 46 50 56 61 54
18 14 13 14 19 22 35 58 81 81 74 70 58 53 50 69 71 53 54 65 68 70 71 82 65 69 76 83 61 39 29 43 37 52 74 74 77 71 75 62 57 67 54 62
15 14 14 14 16 16 16 17 19 24 27 26 25 28 44 46 54 51 57 63 52 61 85 88 77 71 72 91 93 92 81 58 52 53 62 56 72 75 70 72 68 79 62 50
20 20 20 19 17 16 16 18 23 23 24 20 22 24 33 42 47 55 74 61 80 80 66 91 92 82 71 84 84 78 88 78 62 36 60 59 55 75 76 77 71 74 80 65
25 22 18 15 13 10 10 12 14 19 21 22 26 27 25 26 25 26 30 43 48 78 86 80 97 94 89 80 86 93 91 78 66 48 63 60 59 55 50 62 78 72 74 72
16 14 11 10 11 10 10 11 12 12 13 15 18 22 31 30 27 27 26 24 26 34 48 78 97 92 90 87 86 80 97 84 63 60 38 61 68 81 57 54 73 73 80 73
12 12 11 10 9 9 8 8 9 11 11 14 18 20 27 40 38 34 30 28 28 30 34 34 49 80 87 78 72 88 96 90 46 56 52 73 83 51 90 60 64 73 81 73
11 10 10 10 10 10 11 11 11 12 12 14 17 23 31 37 43 44 43 36 35 33 41 42 35 41 63 65 79 86 100 90 75 64 61 80 60 35 51 90 61 64 90 65
10 10 10 9 11 11 11 10 8 8 7 8 13 18 23 31 39 38 42 39 42 42 42 52 49 39 35 45 90 87 97 83 90 65 71 72 51 37 49 64 74 42 75 82
10 11 14 14 14 13 10 7 6 5 5 6 5 6 9 16 22 35 41 39 37 38 40 46 59 64 51 47 92 86 80 83 90 70 61 70 54 56 47 47 64 36 36 76
12 16 18 18 14 10 8 7 8 13 14 14 12 10 9 8 8 10 21 28 38 41 40 38 36 45 64 45 49 82 92 84 76 60 62 66 66 65 45 41 65 60 85 55
17 18 19 16 10 9 14 18 28 32 31 29 22 21 21 24 23 17 12 10 14 35 47 48 49 38 39 52 46 56 94 91 95 78 68 66 57 60 45 50 32 30 28 45
18 17 14 10 11 26 37 40 44 42 32 34 35 37 41 40 50 52 46 27 13 21 26 46 52 50 40 42 56 59 76 95 96 90 95 74 66 61 51 48 49 45 45 37
14 11 9 10 29 49 62 59 61 51 54 63 68 66 65 63 63 72 63 64 68 32 39 46 34 40 51 48 65 69 80 90 99 94 91 94 85 73 57 61 62 56 44 47
10 8 9 25 54 57 67 69 79 64 75 83 77 76 86 77 62 64 72 79 83 82 58 34 30 28 46 53 63 84 79 84 84 93 82 98 93 99 89 95 90 75 82 86
Wind_Speed
7 6 6 5 5 5 5 4 4 5 4 7 7 9 5 2 4 3 6 8 8 9 10 8 11 10 8 11 14 13 15 13 14 12 12 10 9 4 3 5 7 9 10 14
7 8 4 3 3 5 6 5 6 7 7 5 5 7 3 3 2 1 6 8 9 9 10 10 11 14 16 14 14 15 16 15 14 13 14 12 10 9 7 5 9 9 10 13
6 5 4 4 3 3 5 7 7 6 8 7 4 6 5 2 4 3 2 4 10 9 10 11 10 7 11 17 16 15 17 17 16 14 13 10 10 12 13 11 13 16 14 11
3 3 3 4 5 4 6 6 7 8 8 7 5 5 5 6 8 10 7 4 6 9 9 8 9 11 8 10 16 16 17 15 17 15 13 12 10 10 9 10 15 20 18 15
4 3 4 6 5 6 7 4 9 11 11 8 12 4 7 11 7 9 9 6 7 7 5 8 11 14 15 10 12 17 19 16 17 18 16 14 11 8 8 8 10 15 20 19
5 6 7 8 7 7 7 7 9 10 12 9 9 5 8 9 6 8 7 9 13 6 3 4 6 10 13 13 12 14 20 19 17 19 18 16 13 11 11 10 8 13 19 20
8 9 10 10 11 10 11 12 11 12 10 12 9 6 10 12 8 6 10 12 13 13 12 8 8 8 11 13 12 12 14 17 16 17 18 17 16 14 13 14 13 12 15 21
10 10 13 14 15 15 14 16 17 15 10 11 9 4 16 11 11 12 15 14 10 10 13 15 15 11 8 11 11 12 14 14 14 15 17 18 18 16 15 15 14 14 16 18
8 11 13 16 17 17 16 18 18 19 15 12 11 9 11 15 13 14 14 15 12 7 7 12 13 9 8 5 9 12 13 17 13 15 17 18 18 17 15 14 14 14 17 17
12 8 16 15 20 20 21 20 20 20 22 19 12 9 8 13 17 17 18 19 12 7 9 11 12 12 10 7 5 10 15 16 16 17 16 17 17 16 14 14 16 16 16 17
19 15 17 20 23 23 25 26 26 26 25 25 22 13 11 11 16 21 21 20 17 16 13 12 12 14 17 15 10 7 16 16 17 17 18 20 19 17 15 16 17 18 17 18
22 23 16 21 25 26 29 31 29 32 32 30 30 26 22 21 17 17 19 21 20 17 17 16 13 14 18 20 17 11 7 12 15 14 16 19 22 21 17 17 17 18 20 21
25 28 27 20 24 28 31 31 34 36 38 40 37 34 28 30 28 24 21 19 17 17 19 22 20 16 18 17 16 14 11 9 9 10 15 17 18 22 21 22 21 20 21 23
29 29 30 32 31 30 32 34 36 37 41 42 41 38 36 35 35 33 30 26 23 19 16 20 23 23 20 19 18 20 20 18 13 12 15 16 20 22 20 21 19 19 21 22
31 31 33 34 36 39 40 38 38 43 41 44 42 42 41 41 39 39 38 35 31 29 25 22 26 26 24 20 19 20 21 24 21 16 15 18 20 20 18 20 20 18 17 21
33 36 38 39 41 42 43 42 42 42 44 48 47 46 45 44 44 42 42 42 41 38 34 29 29 30 31 25 28 26 30 30 28 23 19 21 22 20 19 21 21 23 22 22
35 37 39 39 40 41 42 42 43 44 45 47 49 50 46 44 46 46 43 42 41 42 42 38 37 33 31 30 33 29 30 30 25 24 23 22 26 29 26 23 24 19 24 25
36 37 37 39 40 41 43 43 42 43 42 44 44 45 45 41 42 44 45 44 42 40 40 40 41 41 38 38 36 35 35 29 27 24 26 29 31 23 31 30 24 17 22 23
36 39 39 39 39 41 41 39 38 38 39 38 38 37 36 39 40 41 45 48 47 43 41 41 40 41 39 42 38 38 36 35 36 30 31 34 30 21 19 19 22 22 22 21
40 42 43 42 42 41 37 33 30 30 33 32 35 35 36 36 39 41 42 45 48 48 46 42 42 41 39 43 36 34 41 37 35 37 35 37 31 24 24 26 31 25 28 22
41 41 40 40 40 37 32 33 32 32 32 30 33 36 36 37 40 39 39 39 43 46 46 46 46 43 41 44 43 39 34 33 41 41 36 30 28 29 28 29 23 30 30 27
38 39 36 35 33 33 33 35 31 27 25 24 25 28 31 34 36 39 39 41 42 43 46 45 45 47 47 48 49 48 45 38 38 38 31 30 29 28 28 31 27 28 30 25
38 36 34 32 28 30 28 26 24 24 22 25 30 30 36 36 32 33 37 39 41 44 45 44 43 44 47 49 50 49 47 44 44 44 40 39 31 29 27 26 23 23 25 25
34 31 29 28 27 22 23 24 24 25 27 29 34 38 39 42 39 36 36 37 41 40 45 47 43 42 45 48 50 47 50 48 46 43 39 39 36 34 33 29 26 25 25 27
30 29 27 27 25 19 21 25 28 29 32 36 38 41 42 43 44 43 46 43 42 44 42 45 46 42 43 48 50 50 51 54 53 47 44 43 41 40 40 35 32 32 33 30
28 28 25 21 23 20 21 28 32 33 33 34 39 38 39 43 44 41 40 40 41 47 47 46 44 43 44 47 52 53 52 53 55 55 51 48 47 41 43 36 33 32 36 35
Wind_Direction
284 264 261 301 328 327 325 323 307 327 20 332 344 329 331 31 17 334 272 256 263 274 277 265 243 236 240 253 249 240 227 225 223 220 216 231 228 235 226 200 181 171 170 182
281 268 290 290 333 344 341 326 321 323 333 346 329 301 301 122 34 293 254 247 257 265 272 267 264 254 248 245 249 242 238 227 227 231 230 236 231 226 236 214 211 204 186 194
256 258 271 296 315 327 323 306 318 305 317 314 333 292 279 207 247 272 332 290 281 270 268 259 241 250 255 252 247 241 242 243 243 237 235 240 242 232 229 228 212 209 207 202
218 239 271 286 292 286 278 318 313 312 307 293 280 267 249 255 272 266 302 343 310 278 280 288 244 235 244 262 247 244 246 246 248 240 235 238 248 243 237 243 229 213 215 214
207 230 248 258 275 267 278 300 316 315 308 287 288 288 237 242 265 285 319 332 332 331 296 273 267 253 245 255 260 241 249 249 249 243 238 238 238 247 228 231 230 235 221 220
235 248 258 272 272 272 276 274 294 297 301 287 279 259 223 244 262 292 292 309 310 300 310 336 303 267 249 256 269 258 243 242 247 249 241 239 242 246 245 241 248 241 230 218
256 260 262 259 267 269 273 279 281 292 296 294 283 259 210 239 260 262 288 293 302 311 304 301 315 319 259 255 266 271 245 235 242 249 245 239 239 246 253 250 248 254 229 216
282 272 276 269 267 274 280 282 287 296 288 300 305 220 202 227 250 270 291 297 300 300 307 306 308 312 301 269 265 263 248 241 243 250 252 248 245 244 248 242 240 241 235 234
289 272 260 267 269 274 271 277 292 295 296 295 292 292 238 234 244 262 270 285 298 315 343 323 322 303 278 279 260 256 251 245 247 250 251 250 246 239 236 238 240 239 242 236
262 228 257 264 265 270 277 280 278 279 288 299 293 277 294 264 238 232 250 273 285 284 311 315 317 333 325 308 248 253 250 256 249 245 240 239 240 239 237 238 240 236 236 231
268 256 225 245 254 262 269 273 273 277 278 285 286 273 279 266 246 234 243 265 284 284 289 290 292 320 326 324 306 256 244 249 257 263 261 250 242 240 242 242 243 239 232 230
280 277 252 243 249 260 261 266 265 265 272 273 277 270 273 277 268 241 243 252 258 267 279 283 275 290 312 307 302 284 280 257 264 267 261 253 252 246 243 241 245 245 237 233
287 286 289 271 260 254 254 258 262 265 268 274 276 278 271 274 274 265 252 255 242 246 247 269 273 277 295 284 295 300 287 253 278 274 260 257 252 248 242 242 247 248 245 238
288 291 293 293 289 277 272 274 271 266 267 272 272 273 273 268 270 270 269 267 260 254 261 258 263 268 267 265 281 280 283 284 241 242 257 261 253 249 245 238 245 245 243 245
286 288 286 286 286 284 283 278 273 275 276 274 275 273 271 270 267 268 269 268 264 264 261 256 255 261 266 260 272 273 269 281 279 239 241 249 258 257 246 239 240 243 248 248
284 288 287 287 286 284 283 282 278 272 271 271 272 271 270 269 268 264 261 259 259 258 256 257 242 251 258 253 263 281 282 277 278 262 242 248 246 249 252 251 248 249 251 254
287 288 289 289 287 285 284 282 280 279 276 274 271 271 270 266 266 266 264 261 258 254 254 247 252 243 247 262 254 258 261 265 268 257 251 255 252 248 237 235 230 251 245 251
295 292 290 289 288 286 286 283 281 279 277 274 272 269 269 266 260 261 262 260 257 255 252 251 246 252 245 255 254 245 256 268 250 242 243 256 265 275 233 247 235 244 242 245
296 294 293 291 290 289 287 286 284 280 276 274 274 273 268 264 260 252 250 255 256 255 248 245 246 243 244 243 248 246 241 253 248 250 247 255 262 267 279 232 231 218 230 239
300 299 297 296 294 293 293 288 282 278 275 275 272 269 270 269 266 265 257 254 254 252 250 244 242 243 240 237 235 240 245 251 246 242 252 256 253 254 250 243 243 223 223 225
298 295 295 296 295 295 291 287 283 282 281 274 270 267 264 262 262 262 264 259 255 252 250 246 240 239 236 231 231 234 239 237 246 235 242 242 249 253 254 258 251 228 225 223
296 293 297 292 290 289 285 286 288 283 285 286 280 278 274 270 266 265 261 260 259 255 249 245 243 238 237 233 232 230 235 237 225 232 233 247 247 246 243 245 238 227 229 228
295 299 297 293 291 288 286 283 282 284 287 287 286 280 278 274 272 271 271 268 256 253 252 249 242 238 236 235 231 232 231 231 233 232 248 248 247 240 237 244 234 230 225 227
300 299 297 296 290 289 285 285 282 282 283 285 286 283 280 280 277 272 269 266 265 259 254 251 244 235 232 232 231 228 227 227 229 241 234 242 245 233 225 225 229 228 230 224
299 298 295 291 288 289 290 286 290 294 297 294 291 287 282 278 275 273 266 264 264 262 260 254 248 242 231 228 230 224 222 226 230 231 237 241 240 238 229 225 228 226 229 230
298 297 292 285 283 287 283 288 292 292 294 297 303 300 291 288 284 277 266 257 252 254 254 251 248 246 238 229 227 225 222 223 226 234 233 235 235 238 230 227 235 240 243 238